K8HC Weather Reports


time (UTC)temp
C
wind
direction
speed
KPH
gust
KPH
rain 1hr
cm
rain 24hr
cm
rain mn
cm
humidity
%
barometer
mb
20260507185403 23 81 1.6 4.8 0.00 0.00 0.00 28 1009.6
20260507184718 23 104 1.6 3.2 0.00 0.00 0.00 29 1009.6
20260507183603 23 50 1.6 4.8 0.00 0.00 0.00 30 1009.6
20260507182703 22 285 1.6 4.8 0.00 0.00 0.00 30 1009.7
20260507181803 23 320 1.6 6.4 0.00 0.00 0.00 30 1009.6
20260507180903 22 250 1.6 3.2 0.00 0.03 0.00 32 1009.7
20260507180003 22 232 1.6 4.8 0.00 0.05 0.00 33 1009.9
20260507175403 21 275 1.6 4.8 0.00 0.08 0.00 32 1010.0
20260507174503 21 76 1.6 6.4 0.00 0.08 0.00 34 1010.3
20260507173603 21 286 1.6 6.4 0.00 0.08 0.00 33 1010.5
20260507172703 21 288 1.6 4.8 0.00 0.08 0.00 35 1010.7
20260507171803 21 345 1.6 4.8 0.00 0.10 0.00 36 1010.8
20260507170903 21 296 1.6 6.4 0.00 0.10 0.00 38 1011.2
20260507170220 20 334 1.6 6.4 0.00 0.10 0.00 38 1011.3
20260507165403 20 294 1.6 6.4 0.00 0.10 0.00 35 1011.4
20260507164503 20 306 1.6 4.8 0.00 0.10 0.00 37 1011.4
20260507163603 20 265 1.6 4.8 0.00 0.10 0.00 38 1011.7
20260507162919 20 170 1.6 4.8 0.00 0.10 0.00 36 1011.7
20260507161803 19 331 1.6 9.7 0.00 0.10 0.00 42 1011.8
20260507160903 18 343 1.6 9.7 0.00 0.10 0.00 36 1011.9
20260507160003 18 59 1.6 4.8 0.00 0.10 0.00 39 1012.1
20260507155403 17 67 1.6 4.8 0.00 0.10 0.00 39 1012.2
20260507154503 17 93 1.6 3.2 0.00 0.10 0.00 42 1012.4
20260507153817 17 272 1.6 4.8 0.00 0.10 0.00 41 1012.5
20260507152703 16 35 1.6 4.8 0.00 0.10 0.00 44 1012.4
20260507151803 16 316 1.6 3.2 0.00 0.10 0.00 46 1012.6
20260507150903 15 132 1.6 6.4 0.00 0.10 0.00 46 1012.7
20260507150003 15 0 0.0 3.2 0.00 0.10 0.00 47 1012.9
20260507145403 15 0 0.0 3.2 0.00 0.10 0.00 47 1013.1
20260507144503 15 358 1.6 3.2 0.00 0.10 0.00 49 1013.2
20260507143603 15 38 1.6 4.8 0.00 0.10 0.00 49 1013.4
20260507142703 14 83 1.6 4.8 0.00 0.10 0.00 50 1013.4
20260507141803 13 0 0.0 1.6 0.00 0.10 0.00 53 1013.6
20260507140903 13 0 0.0 3.2 0.00 0.10 0.00 51 1013.6
20260507140003 13 0 0.0 1.6 0.00 0.10 0.00 51 1013.7
20260507135403 13 0 0.0 1.6 0.00 0.10 0.00 54 1013.8
20260507134503 13 0 0.0 1.6 0.00 0.13 0.00 54 1014.0
20260507133603 12 0 0.0 6.4 0.00 0.15 0.00 56 1014.0
20260507132703 12 0 0.0 3.2 0.00 0.15 0.00 56 1014.2
20260507131803 12 0 0.0 1.6 0.00 0.15 0.00 59 1014.2
20260507130903 11 0 0.0 1.6 0.00 0.18 0.00 61 1014.1
20260507130217 11 0 0.0 1.6 0.00 0.20 0.00 60 1014.3
20260507125403 11 0 0.0 3.2 0.00 0.23 0.00 59 1014.3
20260507124503 11 0 0.0 1.6 0.00 0.25 0.00 59 1014.3
20260507123603 11 0 0.0 3.2 0.00 0.28 0.00 60 1014.3
20260507122705 11 0 0.0 3.2 0.00 0.30 0.00 61 1014.2
20260507121803 11 0 0.0 3.2 0.00 0.30 0.00 62 1014.2
20260507120903 10 0 0.0 6.4 0.00 0.33 0.00 62 1014.0
20260507120004 10 0 0.0 0.0 0.00 0.33 0.00 67 1013.9
20260507115620 10 0 0.0 0.0 0.00 0.33 0.00 68 1014.0
20260507114503 10 0 0.0 0.0 0.00 0.36 0.00 67 1013.8
20260507113603 10 0 0.0 0.0 0.00 0.38 0.00 67 1013.8
20260507112917 10 0 0.0 0.0 0.00 0.41 0.00 66 1013.7
20260507111803 10 0 0.0 0.0 0.00 0.43 0.00 68 1013.8
20260507110903 10 0 0.0 0.0 0.00 0.43 0.00 68 1013.7
20260507110003 10 0 0.0 0.0 0.00 0.43 0.00 69 1013.7
20260507105620 10 0 0.0 1.6 0.00 0.43 0.00 69 1013.8
20260507104503 10 0 0.0 1.6 0.00 0.46 0.00 68 1013.6
20260507103603 10 0 0.0 1.6 0.00 0.46 0.00 68 1013.5
20260507102703 10 0 0.0 1.6 0.00 0.46 0.00 67 1013.2
20260507102020 10 0 0.0 1.6 0.00 0.48 0.00 68 1013.2
20260507100903 10 0 0.0 1.6 0.00 0.48 0.00 71 1013.2
20260507100219 10 0 0.0 3.2 0.00 0.48 0.00 70 1013.1
20260507095403 10 0 0.0 3.2 0.00 0.48 0.00 75 1013.0
20260507094503 10 0 0.0 3.2 0.00 0.48 0.00 75 1012.8
20260507093603 10 0 0.0 1.6 0.00 0.48 0.00 76 1012.8
20260507092703 10 0 0.0 1.6 0.00 0.48 0.00 76 1012.7
20260507091803 10 0 0.0 3.2 0.00 0.48 0.00 76 1012.7
20260507090903 10 0 0.0 3.2 0.00 0.48 0.00 75 1012.8
20260507090004 11 0 0.0 3.2 0.00 0.48 0.00 77 1012.8
20260507085403 11 0 0.0 6.4 0.00 0.48 0.00 75 1012.9
20260507084503 11 0 0.0 6.4 0.00 0.48 0.00 76 1012.8
20260507083603 11 0 0.0 3.2 0.00 0.48 0.00 77 1012.8
20260507082703 11 0 0.0 1.6 0.00 0.48 0.00 76 1012.7
20260507081803 11 0 0.0 1.6 0.00 0.48 0.00 76 1012.8
20260507081118 11 0 0.0 0.0 0.00 0.48 0.00 77 1012.6
20260507080004 11 0 0.0 4.8 0.00 0.48 0.00 76 1012.4
20260507075617 11 0 0.0 4.8 0.00 0.48 0.00 75 1012.5
20260507074503 11 0 0.0 1.6 0.00 0.48 0.00 76 1012.4
20260507073603 11 0 0.0 1.6 0.00 0.48 0.00 80 1012.3
20260507072703 11 0 0.0 1.6 0.00 0.48 0.00 80 1012.2
20260507071803 11 0 0.0 0.0 0.00 0.48 0.00 80 1012.2
20260507071119 11 0 0.0 0.0 0.00 0.48 0.00 81 1012.2
20260507070221 11 0 0.0 1.6 0.00 0.48 0.00 81 1012.4
20260507065403 11 0 0.0 1.6 0.00 0.48 0.00 80 1012.4
20260507064503 11 0 0.0 1.6 0.00 0.48 0.00 82 1012.5
20260507063603 11 0 0.0 1.6 0.00 0.48 0.00 82 1012.7
20260507062920 11 0 0.0 1.6 0.00 0.48 0.00 81 1012.7
20260507061803 11 0 0.0 1.6 0.00 0.48 0.00 81 1012.7
20260507060903 11 0 0.0 0.0 0.00 0.48 0.00 82 1012.9
20260507060003 12 0 0.0 1.6 0.00 0.48 0.00 82 1012.9
20260507055403 12 0 0.0 1.6 0.00 0.48 0.00 82 1013.1
20260507054721 12 0 0.0 1.6 0.00 0.48 0.00 82 1013.0
20260507053603 12 0 0.0 3.2 0.00 0.48 0.00 81 1012.9
20260507052703 12 0 0.0 1.6 0.00 0.48 0.00 81 1012.6
20260507052018 12 0 0.0 8.0 0.00 0.48 0.00 79 1012.5
20260507050903 12 0 0.0 4.8 0.00 0.48 0.00 81 1012.3
20260507050003 12 0 0.0 4.8 0.00 0.48 0.00 80 1012.2
20260507045403 12 0 0.0 3.2 0.00 0.48 0.00 80 1012.3
20260507044503 12 0 0.0 3.2 0.00 0.48 0.00 80 1012.5
20260507043603 12 0 0.0 1.6 0.00 0.48 0.00 81 1012.3
20260507042703 12 0 0.0 3.2 0.00 0.48 0.00 80 1012.2
20260507041803 12 0 0.0 3.2 0.00 0.48 0.00 82 1012.3
20260507040903 12 0 0.0 1.6 0.00 0.48 0.00 81 1012.2
20260507040218 12 0 0.0 1.6 0.00 0.48 0.00 83 1012.3
20260507035403 12 0 0.0 1.6 0.00 0.48 0.48 83 1012.7
20260507034503 12 0 0.0 3.2 0.00 0.48 0.48 84 1012.7
20260507033603 12 0 0.0 3.2 0.00 0.48 0.48 85 1012.0
20260507032703 12 0 0.0 6.4 0.00 0.48 0.48 84 1012.2
20260507032019 12 0 0.0 6.4 0.00 0.48 0.48 84 1012.4
20260507030903 13 0 0.0 1.6 0.00 0.48 0.48 85 1012.6
20260507030003 13 0 0.0 3.2 0.00 0.48 0.48 85 1012.5
20260507025620 13 38 1.6 3.2 0.00 0.48 0.48 84 1012.5
20260507024503 13 0 0.0 3.2 0.00 0.48 0.48 85 1012.2
20260507023603 13 0 0.0 3.2 0.00 0.48 0.48 84 1012.2
20260507022703 13 0 0.0 4.8 0.00 0.48 0.48 85 1011.7
20260507021803 13 106 1.6 4.8 0.00 0.48 0.48 84 1011.8
20260507021117 13 0 0.0 3.2 0.00 0.48 0.48 85 1011.8
20260507020219 13 0 0.0 3.2 0.00 0.48 0.48 85 1011.3
20260507015403 13 0 0.0 3.2 0.00 0.48 0.48 85 1011.7
20260507014503 13 0 0.0 3.2 0.00 0.48 0.48 85 1011.5
20260507013821 13 0 0.0 4.8 0.00 0.48 0.48 84 1011.3
20260507012703 13 0 0.0 3.2 0.00 0.48 0.48 85 1011.6
20260507012020 14 196 1.6 4.8 0.00 0.48 0.48 85 1011.6
20260507010903 14 0 0.0 6.4 0.00 0.48 0.48 85 1011.2
20260507010003 14 0 0.0 1.6 0.00 0.48 0.48 83 1011.0
20260507005617 14 0 0.0 1.6 0.00 0.48 0.48 83 1011.1
20260507004503 15 0 0.0 3.2 0.00 0.48 0.48 83 1011.4
20260507003821 15 0 0.0 1.6 0.00 0.48 0.48 84 1011.7
20260507002703 15 0 0.0 3.2 0.00 0.48 0.48 83 1011.5
20260507001803 15 0 0.0 3.2 0.00 0.48 0.48 84 1011.3
20260507000903 15 0 0.0 3.2 0.00 0.48 0.48 84 1011.2
20260507000003 15 0 0.0 4.8 0.00 0.48 0.48 84 1011.0
20260506235617 15 0 0.0 4.8 0.00 0.48 0.48 84 1011.0
20260506234503 16 0 0.0 4.8 0.00 0.48 0.48 85 1011.0
20260506233817 16 0 0.0 1.6 0.00 0.48 0.48 85 1010.7
20260506232703 16 0 0.0 1.6 0.00 0.48 0.48 85 1010.7
20260506231803 16 43 1.6 6.4 0.00 0.48 0.48 84 1010.1
20260506230903 16 360 1.6 11.3 0.00 0.48 0.48 84 1010.0
20260506230003 17 0 0.0 3.2 0.00 0.48 0.48 86 1010.3
20260506225403 17 0 0.0 0.0 0.00 0.48 0.48 87 1010.0
20260506224503 17 0 0.0 0.0 0.00 0.48 0.48 87 1010.1
20260506223603 17 0 0.0 1.6 0.00 0.48 0.48 86 1010.0
20260506222703 17 0 0.0 1.6 0.00 0.48 0.48 86 1010.0
20260506221803 17 0 0.0 1.6 0.00 0.48 0.48 85 1010.0
20260506220903 17 0 0.0 1.6 0.00 0.48 0.48 85 1009.8
20260506220217 17 0 0.0 3.2 0.00 0.48 0.48 86 1009.7
20260506215403 18 0 0.0 4.8 0.00 0.48 0.48 86 1009.6
20260506214503 18 0 0.0 3.2 0.00 0.48 0.48 87 1009.4
20260506213603 18 18 1.6 4.8 0.00 0.48 0.48 85 1009.4
20260506212920 18 0 0.0 4.8 0.00 0.48 0.48 87 1009.0
20260506211803 18 0 0.0 4.8 0.00 0.48 0.48 89 1009.2
20260506210903 18 0 0.0 4.8 0.00 0.48 0.48 90 1009.2
20260506210003 18 0 0.0 3.2 0.00 0.48 0.48 92 1008.9
20260506205403 18 0 0.0 3.2 0.00 0.48 0.48 92 1008.8
20260506204503 18 0 0.0 0.0 0.00 0.48 0.48 92 1008.4
20260506203603 18 0 0.0 0.0 0.00 0.48 0.48 92 1008.3
20260506202703 18 0 0.0 0.0 0.00 0.48 0.48 92 1008.2
20260506201803 18 0 0.0 1.6 0.00 0.48 0.48 92 1008.3
20260506200903 18 0 0.0 1.6 0.00 0.48 0.48 93 1008.3
20260506200218 18 0 0.0 0.0 0.00 0.48 0.48 93 1008.3
20260506195620 18 0 0.0 1.6 0.00 0.48 0.48 94 1008.3
20260506194717 17 0 0.0 3.2 0.00 0.48 0.48 94 1008.3
20260506193603 17 224 1.6 3.2 0.00 0.48 0.48 93 1008.3
20260506192703 17 0 0.0 3.2 0.00 0.48 0.48 93 1008.4
20260506191803 17 0 0.0 1.6 0.00 0.48 0.48 93 1008.3
20260506190903 17 0 0.0 1.6 0.03 0.48 0.48 92 1008.5
20260506190003 17 0 0.0 1.6 0.05 0.48 0.48 93 1008.6